Weather Roundup
Issued by NWS Chicago, IL

Home | Current Version | Previous Version | Graphics & Text | Print | Product List | Glossary On
Versions: 1 2 3 4 5 6 7 8 9 10 11 12 13 14 15 16 17 18 19 20 21 22 23 24 25 26 27 28 29 30 31 32 33 34 35 36 37 38 39 40 41 42 43 44 45 46 47 48 49 50
000
NZUS59 KLOT 010121
HRRLOT

CHICAGO AREA WEATHER ROUNDUP
NATIONAL WEATHER SERVICE CHICAGO/ROMEOVILLE IL
800 PM CDT FRI JUL 31 2015

NOTE: "FAIR" INDICATES FEW OR NO CLOUDS BELOW 12,000 FEET WITH NO
SIGNIFICANT WEATHER AND/OR OBSTRUCTIONS TO VISIBILITY.

* THESE STATIONS ARE NOT UNDER NWS QUALITY CONTROL. THEY ALSO MAY NOT
  REPORT WEATHER SUCH AS PRECIPITATION OR FOG.

ILZ005-006-012>014-019>023-010200-
NORTHEAST ILLINOIS

CITY           SKY/WX    TMP DP  RH WIND       PRES   REMARKS
OHARE          CLEAR     80  48  32 NW10      29.94R
MIDWAY         PTCLDY    82  48  30 NW13      29.94R HX  81
AURORA         CLEAR     72  55  55 W7        29.97R
LANSING*       CLEAR     79  47  31 NW9       29.94S
JOLIET*        CLEAR     80  53  38 CALM      29.96R HX  80
WAUKEGAN       CLEAR     74  51  44 CALM      29.94R
DUPAGE AIRPORT CLEAR     77  51  40 W9        29.95S
WHEELING       CLEAR     79  47  32 NW10      29.96R
KANKAKEE*      CLEAR     79  56  44 NW7       29.97R HX  80
MORRIS*        CLEAR     73  58  60 NW6       29.96R
LEWIS AIRPORT* CLEAR     77  47  34 NW9       29.96R
NORTHERLY IS     N/A     81  47  30 W15         N/A  HX  80
$$

WIZ051-052-058>065-066-070>072-010200-
SOUTHEAST WISCONSIN

CITY           SKY/WX    TMP DP  RH WIND       PRES   REMARKS
MILWAUKEE      PTCLDY    80  47  31 NW14      29.92S
KENOSHA*       CLEAR     73  52  47 W7        29.94R
RACINE*        CLEAR     77  50  38 W6        29.94S
BURLINGTON     CLEAR     71  48  44 W6        29.95R
WAUKESHA       PTCLDY    73  50  43 W8        29.95R
WEST BEND      CLEAR     73  45  35 W5        29.92S
$$

INZ001>003-010>013-019-020-010200-
NORTHWEST INDIANA

CITY           SKY/WX    TMP DP  RH WIND       PRES   REMARKS
GARY*          CLEAR     81  48  32 W14       29.94R HX  80
MICHIGAN CITY* NOT AVBL
RENSSELAER*    NOT AVBL
VALPARAISO     CLEAR     75  55  49 CALM      29.95R
$$

LMZ740>746-010200-
SOUTHERN LAKE MICHIGAN

STATION/POSITION TIME  SKY/WX   TEMP WIND        PRES    VSBY
                                AIR  DIR/SP/G
                 (UTC)          (F)  (DEG/KT/KT) (MB)    (MI)
HARRISON CRIB    0100            79  310/ 18/ 21   N/A
BURNHAM HARBOR   0100            80  300/ 12/ 15   N/A
CALUMET HARBOR   0000            83  290/  7/ 12   N/A
BURNS HARBOR     0000            77  360/  9/ 12 1013.9S
MICHIGAN CITY    0100            75  330/ 11/ 13   N/A
$$

ABBREVIATIONS USED IN REMARKS
   TC - TEMPERATURE IN CELSIUS
  WCI - WIND CHILL INDEX
   HX - HEAT INDEX
  VSB - VISIBILITY
$$



USA.gov is the U.S. government's official web portal to all federal, state and local government web resources and services.